Regional Weather Roundup
Issued by NWS Kansas City/Pleasant Hill, MO

Home | Current Version | Previous Version | Graphics & Text | Print | Product List | Glossary Off
Versions: 1 2 3 4 5 6 7 8 9 10 11 12 13 14 15 16 17 18 19 20 21 22 23 24 25 26 27 28 29 30 31 32 33 34 35 36 37 38 39 40 41 42 43 44 45 46 47 48 49 50

000
ASUS43 KEAX 290311
RWREAX

WEATHER ROUNDUP FOR EASTERN KANSAS AND NORTHWEST MISSOURI
NATIONAL WEATHER SERVICE KANSAS CITY/PLEASANT HILL MO
1000 PM CDT THU AUG 28 2014

KSZ040-057-103>105-MOZ028-029-037-043-290400-
...KANSAS CITY METROPOLITAN AREA...

CITY           SKY/WX    TMP DP  RH WIND       PRES   REMARKS
K.C. INTL      CLEAR     76  65  68 S8        29.88R
K.C. DOWNTOWN  CLEAR     83  65  54 S7        29.86R
LEES SUMMIT    CLEAR     82  66  58 S7        29.88R
OLATHE - IXD   CLEAR     79  64  60 S7        29.88R
OLATHE - OJC   CLEAR     77  65  66 S7        29.87R
LAWRENCE       PTCLDY    80  68  66 SE6       29.87R

$$

MOZ001>008-011>017-020>025-030>033-038>040-044>046-053-054-290400-
...NORTHERN AND CENTRAL MISSOURI...

CITY           SKY/WX    TMP DP  RH WIND       PRES   REMARKS
ST. JOSEPH     MOCLDY    76  72  87 W3        29.86R
MOSBY          CLEAR     77  70  78 CALM      29.87R
WHITEMAN AFB   CLEAR     78  68  70 SE7       29.89S
CLINTON        CLEAR     79  66  65 SE5       29.90S
SEDALIA        CLEAR     77  68  73 S7        29.91S
WARSAW         NOT AVBL
MARSHALL       CLEAR     79  72  78 SE6       29.90R
CHILLICOTHE      N/A     79  72  79 E6        29.90R
MOBERLY        CLEAR     75  70  83 E6        29.92S
KIRKSVILLE     CLEAR     74  71  91 E7        29.94R

$$

MOZ041-047>049-056>058-063>065-088>090-097-290400-
...EASTERN AND SOUTHERN MISSOURI...

CITY           SKY/WX    TMP DP  RH WIND       PRES   REMARKS
ST. LOUIS INTL MOCLDY    79  70  74 SE10      29.98S
SPIRIT OF STL  MOCLDY    77  71  82 CALM      29.95S
COLUMBIA       CLEAR     80  68  66 E8        29.92F
JEFFERSON CITY CLEAR     77  69  76 SE5       29.91R
MEXICO         PTCLDY    81  75  83 SE9       29.93S
HANNIBAL       PTCLDY    75  68  78 E8        29.97R
ROLLA          CLEAR     78  65  63 E9        29.95R
LEBANON        CLEAR     77  61  57 S6        29.97R
OSAGE BEACH    CLEAR     79  63  57 SE5       29.93S
SPRINGFIELD    CLEAR     79  59  50 S8        29.95R
BRANSON        CLEAR     77  61  57 CALM      29.98S
NEVADA         CLEAR     73  63  68 S5        29.91S
JOPLIN         CLEAR     79  62  56 MISG      29.92S
WEST PLAINS    CLEAR     77  62  59 SE5       30.00R

$$

IAZ060-094-KSZ022-034>040-054-083-096-NEZ052-066-093-290400-
...KANSAS...SOUTHEAST NEBRASKA AND IOWA...

CITY           SKY/WX    TMP DP  RH WIND       PRES   REMARKS
TOPEKA         MOCLDY    85  64  49 S6        29.86R
MANHATTAN      CLOUDY    73  70  90 CALM      29.86R
EMPORIA        CLOUDY    78  67  68 S5        29.88R
CHANUTE        CLEAR     79  60  52 S9        29.89R
WICHITA        TSTM      70  64  81 S14       29.91R
OMAHA          MOCLDY    76  72  87 SE5       29.84F
LINCOLN        MOCLDY    73  68  84 S5        29.85R
FALLS CITY     PTCLDY    76  73  91 CALM      29.86R
LAMONI         PTCLDY    75  73  93 E6        29.90S
DES MOINES     CLOUDY    74  71  91 SE9       29.89F THUNDER

$$



USA.gov is the U.S. government's official web portal to all federal, state and local government web resources and services.